EVA683 CYYZ-KORD

Flight info

Callsign EVA683
Flight time 1h 6m
Altitude 34000
Route GOPUP4 HOCKE DCT FNT WYNDE3
Aircraft B77L/H-SDE1E2E3FGHIJ2J3J4J5M1RWXY/LB1D1

Departure

Time 2026-05-07 17:16
Airport Toronto Pearson International Airport (CYYZ)

Arrival

Time 2026-05-07 18:22
Airport Chicago O'Hare International Airport (KORD)
Time Latitude Longitude Altitude Speed Heading
2026-05-07 16:54 43.67897 -79.63192 556 ft 0 kts 316°
2026-05-07 17:05 43.67888 -79.63180 556 ft 2 kts 323°
2026-05-07 17:06 43.67875 -79.63170 556 ft 2 kts 338°
2026-05-07 17:06 43.67861 -79.63164 556 ft 2 kts 349°
2026-05-07 17:06 43.67846 -79.63161 556 ft 2 kts
2026-05-07 17:06 43.67831 -79.63164 556 ft 2 kts 13°
2026-05-07 17:07 43.67817 -79.63170 556 ft 2 kts 25°
2026-05-07 17:07 43.67804 -79.63180 556 ft 2 kts 37°
2026-05-07 17:07 43.67796 -79.63189 556 ft 0 kts 45°
2026-05-07 17:07 43.67794 -79.63192 556 ft 0 kts 46°
2026-05-07 17:10 43.67795 -79.63191 556 ft 0 kts 46°
2026-05-07 17:11 43.67812 -79.63167 556 ft 6 kts 46°
2026-05-07 17:11 43.67853 -79.63108 556 ft 10 kts 45°
2026-05-07 17:11 43.67917 -79.63020 556 ft 14 kts 45°
2026-05-07 17:11 43.68006 -79.62982 556 ft 16 kts 324°
2026-05-07 17:12 43.68058 -79.63045 556 ft 18 kts 316°
2026-05-07 17:12 43.68165 -79.63182 556 ft 21 kts 316°
2026-05-07 17:12 43.68282 -79.63337 558 ft 23 kts 317°
2026-05-07 17:12 43.68406 -79.63499 559 ft 25 kts 315°
2026-05-07 17:13 43.68544 -79.63679 559 ft 28 kts 315°
2026-05-07 17:13 43.68691 -79.63870 559 ft 28 kts 316°
2026-05-07 17:13 43.68798 -79.63969 559 ft 13 kts 20°
2026-05-07 17:13 43.68875 -79.63881 562 ft 14 kts 45°
2026-05-07 17:14 43.68955 -79.63767 563 ft 18 kts 47°
2026-05-07 17:14 43.69051 -79.63626 563 ft 21 kts 46°
2026-05-07 17:14 43.69160 -79.63468 562 ft 24 kts 46°
2026-05-07 17:14 43.69320 -79.63405 561 ft 24 kts 31°
2026-05-07 17:15 43.69474 -79.63335 559 ft 20 kts 327°
2026-05-07 17:15 43.69445 -79.63466 560 ft 17 kts 225°
2026-05-07 17:15 43.69282 -79.63696 563 ft 62 kts 225°
2026-05-07 17:15 43.68794 -79.64398 559 ft 133 kts 226°
2026-05-07 17:16 43.68027 -79.65516 754 ft 172 kts 225°
2026-05-07 17:16 43.67193 -79.66795 1420 ft 179 kts 231°
2026-05-07 17:16 43.66452 -79.68175 2267 ft 181 kts 236°
2026-05-07 17:16 43.65731 -79.69590 3181 ft 180 kts 237°
2026-05-07 17:17 43.65015 -79.71004 3919 ft 182 kts 238°
2026-05-07 17:17 43.64244 -79.72547 4274 ft 199 kts 241°
2026-05-07 17:17 43.63837 -79.74515 4575 ft 215 kts 273°
2026-05-07 17:17 43.64279 -79.76598 4937 ft 232 kts 292°
2026-05-07 17:18 43.64962 -79.78783 5677 ft 234 kts 292°
2026-05-07 17:18 43.65619 -79.80866 6314 ft 242 kts 292°
2026-05-07 17:18 43.66335 -79.83138 6875 ft 254 kts 292°
2026-05-07 17:18 43.67079 -79.85502 7723 ft 255 kts 292°
2026-05-07 17:19 43.67823 -79.87865 8516 ft 258 kts 292°
2026-05-07 17:19 43.68538 -79.90138 9258 ft 260 kts 292°
2026-05-07 17:19 43.69254 -79.92416 9994 ft 262 kts 291°
2026-05-07 17:19 43.69875 -79.94836 10419 ft 274 kts 282°
2026-05-07 17:20 43.70190 -79.97488 10747 ft 290 kts 276°
2026-05-07 17:20 43.70434 -80.00335 11158 ft 305 kts 276°
2026-05-07 17:20 43.70710 -80.03307 11561 ft 321 kts 277°
2026-05-07 17:20 43.71017 -80.06443 12023 ft 336 kts 277°
2026-05-07 17:21 43.71338 -80.09676 12593 ft 347 kts 277°
2026-05-07 17:21 43.71667 -80.12987 13474 ft 350 kts 277°
2026-05-07 17:21 43.71995 -80.16304 14475 ft 352 kts 277°
2026-05-07 17:21 43.72324 -80.19637 15436 ft 357 kts 277°
2026-05-07 17:22 43.72660 -80.23046 16426 ft 360 kts 277°
2026-05-07 17:22 43.72992 -80.26437 17450 ft 362 kts 277°
2026-05-07 17:22 43.73281 -80.29900 18417 ft 365 kts 273°
2026-05-07 17:22 43.73324 -80.33383 19300 ft 369 kts 270°
2026-05-07 17:23 43.73331 -80.37274 20246 ft 374 kts 270°
2026-05-07 17:23 43.73336 -80.41138 21195 ft 378 kts 270°
2026-05-07 17:23 43.73341 -80.44931 22124 ft 381 kts 270°
2026-05-07 17:23 43.73346 -80.48624 22890 ft 386 kts 269°
2026-05-07 17:24 43.73349 -80.52326 23617 ft 391 kts 269°
2026-05-07 17:24 43.73351 -80.56071 24376 ft 395 kts 269°
2026-05-07 17:24 43.73352 -80.59882 25075 ft 398 kts 269°
2026-05-07 17:24 43.73352 -80.63662 25765 ft 401 kts 269°
2026-05-07 17:25 43.73351 -80.67533 26393 ft 404 kts 268°
2026-05-07 17:25 43.73349 -80.71388 27182 ft 404 kts 268°
2026-05-07 17:25 43.73345 -80.75267 27928 ft 405 kts 268°
2026-05-07 17:25 43.73340 -80.79147 28528 ft 409 kts 268°
2026-05-07 17:26 43.73333 -80.83068 29046 ft 413 kts 268°
2026-05-07 17:26 43.73326 -80.87013 29687 ft 413 kts 268°
2026-05-07 17:26 43.73317 -80.90965 30498 ft 408 kts 268°
2026-05-07 17:26 43.73307 -80.94930 31208 ft 404 kts 268°
2026-05-07 17:27 43.73295 -80.98820 31779 ft 403 kts 268°
2026-05-07 17:27 43.73282 -81.02766 32205 ft 407 kts 268°
2026-05-07 17:27 43.73266 -81.06709 32600 ft 411 kts 268°
2026-05-07 17:27 43.73250 -81.10700 33049 ft 412 kts 268°
2026-05-07 17:28 43.73233 -81.14706 33559 ft 412 kts 268°
2026-05-07 17:28 43.73214 -81.18700 33854 ft 415 kts 268°
2026-05-07 17:28 43.73172 -81.26633 33907 ft 413 kts 269°
2026-05-07 17:29 43.73125 -81.34544 33904 ft 412 kts 268°
2026-05-07 17:29 43.73073 -81.42461 33900 ft 412 kts 268°
2026-05-07 17:30 43.72944 -81.50427 33909 ft 413 kts 264°
2026-05-07 17:30 43.71663 -81.58134 33901 ft 413 kts 251°
2026-05-07 17:31 43.69080 -81.65257 33909 ft 415 kts 243°
2026-05-07 17:31 43.66278 -81.72195 33923 ft 416 kts 243°
2026-05-07 17:32 43.63464 -81.79111 33922 ft 414 kts 243°
2026-05-07 17:32 43.60631 -81.86044 33926 ft 417 kts 243°
2026-05-07 17:33 43.57795 -81.92959 33921 ft 414 kts 243°
2026-05-07 17:33 43.54960 -81.99850 33928 ft 415 kts 243°
2026-05-07 17:34 43.52125 -82.06722 33917 ft 412 kts 243°
2026-05-07 17:34 43.49287 -82.13587 33916 ft 412 kts 243°
2026-05-07 17:35 43.46494 -82.20447 33922 ft 413 kts 244°
2026-05-07 17:35 43.43764 -82.27329 33921 ft 411 kts 244°
2026-05-07 17:36 43.41020 -82.34217 33921 ft 412 kts 244°
2026-05-07 17:36 43.38266 -82.41106 33919 ft 410 kts 244°
2026-05-07 17:37 43.35520 -82.47957 33921 ft 412 kts 244°
2026-05-07 17:37 43.32758 -82.54826 33914 ft 411 kts 244°
2026-05-07 17:38 43.29985 -82.61710 33913 ft 412 kts 244°
2026-05-07 17:38 43.27211 -82.68577 33929 ft 412 kts 244°
2026-05-07 17:39 43.24883 -82.75727 33938 ft 410 kts 251°
2026-05-07 17:39 43.22847 -82.83030 33930 ft 409 kts 251°
2026-05-07 17:40 43.20811 -82.90301 33935 ft 411 kts 251°
2026-05-07 17:40 43.18771 -82.97552 33933 ft 410 kts 251°
2026-05-07 17:41 43.16711 -83.04851 33935 ft 409 kts 251°
2026-05-07 17:41 43.14653 -83.12118 33929 ft 409 kts 251°
2026-05-07 17:42 43.12589 -83.19382 33935 ft 410 kts 250°
2026-05-07 17:42 43.10519 -83.26650 33937 ft 409 kts 251°
2026-05-07 17:43 43.08452 -83.33882 33931 ft 411 kts 251°
2026-05-07 17:43 43.06377 -83.41122 33937 ft 410 kts 251°
2026-05-07 17:44 43.04298 -83.48357 33939 ft 410 kts 251°
2026-05-07 17:44 43.02218 -83.55574 33938 ft 411 kts 251°
2026-05-07 17:45 43.00123 -83.62821 33951 ft 410 kts 251°
2026-05-07 17:45 42.98013 -83.70101 33966 ft 411 kts 250°
2026-05-07 17:46 42.96374 -83.77615 33960 ft 410 kts 261°
2026-05-07 17:46 42.95636 -83.85301 33965 ft 408 kts 262°
2026-05-07 17:47 42.94913 -83.92953 33972 ft 408 kts 262°
2026-05-07 17:47 42.94177 -84.00619 33959 ft 407 kts 262°
2026-05-07 17:48 42.93433 -84.08272 33942 ft 409 kts 262°
2026-05-07 17:48 42.92675 -84.15989 33947 ft 410 kts 262°
2026-05-07 17:49 42.91920 -84.23621 33949 ft 408 kts 262°
2026-05-07 17:49 42.91152 -84.31327 33940 ft 410 kts 262°
2026-05-07 17:50 42.90377 -84.39046 33954 ft 410 kts 262°
2026-05-07 17:50 42.89599 -84.46732 33948 ft 408 kts 263°
2026-05-07 17:51 42.88799 -84.54595 33952 ft 408 kts 262°
2026-05-07 17:51 42.87958 -84.62792 33948 ft 411 kts 262°
2026-05-07 17:52 42.87157 -84.70559 33956 ft 409 kts 262°
2026-05-07 17:52 42.86362 -84.78219 33957 ft 410 kts 262°
2026-05-07 17:53 42.85562 -84.85873 33946 ft 409 kts 262°
2026-05-07 17:53 42.84755 -84.93539 33940 ft 410 kts 262°
2026-05-07 17:54 42.83939 -85.01228 33946 ft 410 kts 262°
2026-05-07 17:54 42.83116 -85.08931 33946 ft 411 kts 262°
2026-05-07 17:55 42.82291 -85.16606 33953 ft 410 kts 262°
2026-05-07 17:55 42.81458 -85.24308 33954 ft 412 kts 262°
2026-05-07 17:56 42.80621 -85.31992 33948 ft 413 kts 262°
2026-05-07 17:56 42.79767 -85.39788 33960 ft 412 kts 262°
2026-05-07 17:57 42.79059 -85.46207 33952 ft 410 kts 262°
2026-05-07 17:57 42.77715 -85.55095 33962 ft 413 kts 258°
2026-05-07 17:58 42.76304 -85.62961 33961 ft 413 kts 258°
2026-05-07 17:58 42.74968 -85.70386 33970 ft 414 kts 257°
2026-05-07 17:59 42.73491 -85.78554 33909 ft 409 kts 257°
2026-05-07 17:59 42.72756 -85.82609 33336 ft 408 kts 257°
2026-05-07 17:59 42.72023 -85.86647 32648 ft 411 kts 257°
2026-05-07 18:00 42.71286 -85.90695 31961 ft 414 kts 257°
2026-05-07 18:00 42.70547 -85.94750 31231 ft 418 kts 258°
2026-05-07 18:00 42.69796 -85.98859 30631 ft 416 kts 258°
2026-05-07 18:00 42.69040 -86.02984 30176 ft 411 kts 258°
2026-05-07 18:01 42.68307 -86.06973 29734 ft 407 kts 258°
2026-05-07 18:01 42.67590 -86.10866 29298 ft 403 kts 258°
2026-05-07 18:01 42.66892 -86.14651 28858 ft 400 kts 258°
2026-05-07 18:01 42.66190 -86.18452 28383 ft 398 kts 258°
2026-05-07 18:02 42.64832 -86.25783 27493 ft 393 kts 258°
2026-05-07 18:02 42.64173 -86.29329 26981 ft 390 kts 258°
2026-05-07 18:02 42.63509 -86.32900 26476 ft 387 kts 258°
2026-05-07 18:03 42.62850 -86.36433 25988 ft 383 kts 258°
2026-05-07 18:03 42.62190 -86.39966 25535 ft 378 kts 258°
2026-05-07 18:03 42.61543 -86.43424 25077 ft 374 kts 258°
2026-05-07 18:03 42.60892 -86.46900 24595 ft 379 kts 258°
2026-05-07 18:04 42.60244 -86.50355 24119 ft 386 kts 258°
2026-05-07 18:04 42.59585 -86.53857 23643 ft 383 kts 258°
2026-05-07 18:04 42.58932 -86.57321 23158 ft 378 kts 258°
2026-05-07 18:04 42.58284 -86.60748 22705 ft 374 kts 258°
2026-05-07 18:05 42.57645 -86.64130 22225 ft 371 kts 258°
2026-05-07 18:05 42.56997 -86.67548 21780 ft 368 kts 257°
2026-05-07 18:05 42.56369 -86.70855 21328 ft 366 kts 257°
2026-05-07 18:05 42.55592 -86.74162 20869 ft 365 kts 252°
2026-05-07 18:06 42.54712 -86.77432 20376 ft 362 kts 252°
2026-05-07 18:06 42.53830 -86.80688 19913 ft 358 kts 252°
2026-05-07 18:06 42.52966 -86.83875 19445 ft 355 kts 252°
2026-05-07 18:06 42.52114 -86.87017 18969 ft 351 kts 252°
2026-05-07 18:07 42.51272 -86.90118 18514 ft 348 kts 252°
2026-05-07 18:07 42.50444 -86.93167 18057 ft 347 kts 253°
2026-05-07 18:07 42.49607 -86.96246 17585 ft 345 kts 253°
2026-05-07 18:07 42.48786 -86.99261 17155 ft 344 kts 252°
2026-05-07 18:08 42.47962 -87.02283 16691 ft 342 kts 253°
2026-05-07 18:08 42.47149 -87.05260 16227 ft 339 kts 253°
2026-05-07 18:08 42.46338 -87.08227 15778 ft 336 kts 253°
2026-05-07 18:08 42.45525 -87.11201 15330 ft 334 kts 253°
2026-05-07 18:09 42.44724 -87.14126 14879 ft 332 kts 253°
2026-05-07 18:09 42.43926 -87.17037 14434 ft 331 kts 253°
2026-05-07 18:09 42.43135 -87.19920 13999 ft 329 kts 253°
2026-05-07 18:09 42.42323 -87.22875 13557 ft 327 kts 253°
2026-05-07 18:10 42.41475 -87.25949 13087 ft 326 kts 252°
2026-05-07 18:10 42.40345 -87.28842 12583 ft 328 kts 239°
2026-05-07 18:10 42.38756 -87.31287 12115 ft 332 kts 227°
2026-05-07 18:10 42.36768 -87.33189 11637 ft 338 kts 214°
2026-05-07 18:11 42.34443 -87.34488 11128 ft 340 kts 205°
2026-05-07 18:11 42.32832 -87.35214 10770 ft 339 kts 204°
2026-05-07 18:11 42.29785 -87.36556 10552 ft 321 kts 204°
2026-05-07 18:11 42.27700 -87.37473 10503 ft 306 kts 204°
2026-05-07 18:12 42.25714 -87.38351 10394 ft 294 kts 205°
2026-05-07 18:12 42.23815 -87.39192 10276 ft 282 kts 205°
2026-05-07 18:12 42.21974 -87.40007 10173 ft 271 kts 205°
2026-05-07 18:12 42.20204 -87.40791 10064 ft 261 kts 205°
2026-05-07 18:13 42.18499 -87.41545 9941 ft 251 kts 205°
2026-05-07 18:13 42.16781 -87.42311 9627 ft 261 kts 205°
2026-05-07 18:13 42.14959 -87.43117 9234 ft 261 kts 204°
2026-05-07 18:13 42.13238 -87.43874 8919 ft 259 kts 204°
2026-05-07 18:14 42.11522 -87.44629 8673 ft 253 kts 204°
2026-05-07 18:14 42.09887 -87.45346 8561 ft 240 kts 204°
2026-05-07 18:14 42.08265 -87.46062 8180 ft 239 kts 204°
2026-05-07 18:14 42.06697 -87.46755 7755 ft 237 kts 203°
2026-05-07 18:15 42.05096 -87.47459 7457 ft 231 kts 203°
2026-05-07 18:15 42.03528 -87.48148 7157 ft 225 kts 203°
2026-05-07 18:15 42.02340 -87.48669 6926 ft 220 kts 203°
2026-05-07 18:15 42.01754 -87.48928 6852 ft 219 kts 203°
2026-05-07 18:16 41.99800 -87.49787 6489 ft 219 kts 202°
2026-05-07 18:16 41.98387 -87.50562 6227 ft 214 kts 216°
2026-05-07 18:16 41.97277 -87.51885 5982 ft 212 kts 234°
2026-05-07 18:16 41.96689 -87.53694 5691 ft 211 kts 259°
2026-05-07 18:17 41.96510 -87.55642 5407 ft 211 kts 266°
2026-05-07 18:17 41.96457 -87.57730 5058 ft 211 kts 269°
2026-05-07 18:17 41.96457 -87.59785 4768 ft 208 kts 270°
2026-05-07 18:17 41.96479 -87.61746 4544 ft 207 kts 270°
2026-05-07 18:18 41.96499 -87.63670 4300 ft 205 kts 270°
2026-05-07 18:18 41.96511 -87.65752 4020 ft 203 kts 269°
2026-05-07 18:18 41.96517 -87.67711 3755 ft 200 kts 269°
2026-05-07 18:18 41.96524 -87.69710 3483 ft 198 kts 269°
2026-05-07 18:19 41.96531 -87.71712 3210 ft 196 kts 269°
2026-05-07 18:19 41.96537 -87.73538 2955 ft 195 kts 269°
2026-05-07 18:19 41.96542 -87.75349 2700 ft 193 kts 268°
2026-05-07 18:19 41.96548 -87.77124 2444 ft 179 kts 268°
2026-05-07 18:20 41.96553 -87.78752 2220 ft 167 kts 266°
2026-05-07 18:20 41.96557 -87.80273 1995 ft 155 kts 266°
2026-05-07 18:20 41.96559 -87.81705 1792 ft 142 kts 266°
2026-05-07 18:20 41.96561 -87.83016 1612 ft 136 kts 265°
2026-05-07 18:21 41.96563 -87.84286 1433 ft 138 kts 265°
2026-05-07 18:21 41.96563 -87.85574 1241 ft 138 kts 266°
2026-05-07 18:21 41.96564 -87.86863 1060 ft 138 kts 265°
2026-05-07 18:21 41.96568 -87.88162 874 ft 137 kts 265°
2026-05-07 18:22 41.96571 -87.89466 696 ft 138 kts 267°
2026-05-07 18:22 41.96566 -87.90288 681 ft 114 kts 270°
2026-05-07 18:22 41.96578 -87.91294 681 ft 45 kts 286°
2026-05-07 18:22 41.96704 -87.91536 681 ft 13 kts 11°
2026-05-07 18:23 41.96735 -87.91397 681 ft 19 kts 89°
2026-05-07 18:23 41.96737 -87.91181 681 ft 26 kts 90°
2026-05-07 18:23 41.96735 -87.90922 681 ft 29 kts 90°
2026-05-07 18:23 41.96737 -87.90635 681 ft 31 kts 89°
2026-05-07 18:24 41.96736 -87.90331 681 ft 32 kts 90°
2026-05-07 18:24 41.96738 -87.90053 681 ft 29 kts 90°
2026-05-07 18:24 41.96736 -87.89783 681 ft 28 kts 90°
2026-05-07 18:24 41.96620 -87.89688 681 ft 22 kts 179°
2026-05-07 18:25 41.96468 -87.89688 681 ft 21 kts 181°
2026-05-07 18:25 41.96409 -87.89816 681 ft 17 kts 268°
2026-05-07 18:25 41.96407 -87.89981 681 ft 17 kts 269°
2026-05-07 18:25 41.96408 -87.90140 681 ft 16 kts 270°
2026-05-07 18:26 41.96407 -87.90298 681 ft 16 kts 269°
2026-05-07 18:26 41.96408 -87.90453 681 ft 16 kts 270°
2026-05-07 18:26 41.96360 -87.90582 681 ft 15 kts 233°
2026-05-07 18:26 41.96298 -87.90694 681 ft 14 kts 232°
2026-05-07 18:27 41.96235 -87.90803 681 ft 14 kts 232°
2026-05-07 18:27 41.96216 -87.90932 681 ft 15 kts 270°
2026-05-07 18:27 41.96216 -87.91084 681 ft 17 kts 270°
2026-05-07 18:27 41.96215 -87.91224 681 ft 4 kts 264°
2026-05-07 18:28 41.96188 -87.91246 681 ft 6 kts 186°
2026-05-07 18:28 41.96146 -87.91248 681 ft 0 kts 179°
2026-05-07 18:28 41.96143 -87.91248 681 ft 0 kts 179°